Location: Beverley
(50.2667°N, 107.9667°W)
Time: 23:32:48
(UTC+00:00)

Envisat - Pass Details

Date: 23 January 2022
Orbit: 764 x 765 km, 98.2° (Epoch: 22 May)

Event Time Altitude Azimuth Distance (km) Brightness Sun altitude
Rises 00:46:03 0° 220° (SW) 3,221 7.4 -9.1°
Reaches altitude 10° 00:49:45 10° 248° (WSW) 2,301 7.1 -9.7°
Maximum altitude 00:52:00 13° 275° (W) 2,110 6.4 -10.0°
Drops below altitude 10° 00:54:15 10° 302° (WNW) 2,309 6.1 -10.3°
Sets 00:58:00 0° 330° (NNW) 3,242 6.4 -10.9°
